| time (UTC) | temp F | wind direction | speed knots | gust knots | rain 1hr in | rain 24hr in | rain mn in | humidity % | barometer mb |
| 20260507224742 | 58 | 224 | 4.3 | 8.7 | 0.00 | 0.02 | 0.02 | 50 | 1009.1 |
| 20260507224250 | 58 | 198 | 1.7 | 5.2 | 0.00 | 0.02 | 0.02 | 53 | 1009.1 |
| 20260507223752 | 58 | 243 | 3.5 | 7.8 | 0.00 | 0.02 | 0.02 | 53 | 1009.1 |
| 20260507223237 | 58 | 249 | 0.9 | 13.0 | 0.00 | 0.02 | 0.02 | 50 | 1009.1 |
| 20260507222737 | 58 | 252 | 4.3 | 13.0 | 0.00 | 0.02 | 0.02 | 52 | 1009.1 |
| 20260507222501 | 57 | 226 | 1.7 | 8.7 | 0.01 | 0.02 | 0.02 | 53 | 1009.1 |
| 20260507221735 | 56 | 190 | 1.7 | 5.2 | 0.01 | 0.02 | 0.02 | 57 | 1009.1 |
| 20260507221234 | 55 | 178 | 4.3 | 4.3 | 0.01 | 0.02 | 0.02 | 58 | 1009.4 |
| 20260507220735 | 55 | 320 | 1.7 | 4.3 | 0.02 | 0.02 | 0.02 | 59 | 1009.4 |
| 20260507220233 | 56 | 271 | 1.7 | 4.3 | 0.02 | 0.02 | 0.02 | 57 | 1009.1 |
| 20260507215733 | 55 | 283 | 2.6 | 4.3 | 0.02 | 0.02 | 0.02 | 58 | 1009.4 |
| 20260507215234 | 55 | 146 | 2.6 | 3.5 | 0.02 | 0.02 | 0.02 | 59 | 1009.4 |
| 20260507214735 | 54 | 203 | 1.7 | 3.5 | 0.02 | 0.02 | 0.02 | 65 | 1009.1 |
| 20260507214231 | 54 | 157 | 0.9 | 3.5 | 0.02 | 0.02 | 0.02 | 65 | 1009.1 |
| 20260507213731 | 52 | 98 | 0.9 | 3.5 | 0.02 | 0.02 | 0.02 | 70 | 1009.1 |
| 20260507213231 | 51 | 60 | 0.0 | 7.0 | 0.02 | 0.02 | 0.02 | 73 | 1009.1 |
| 20260507212732 | 51 | 65 | 4.3 | 7.0 | 0.02 | 0.02 | 0.02 | 71 | 1009.4 |
| 20260507212229 | 51 | 31 | 2.6 | 3.5 | 0.01 | 0.01 | 0.01 | 73 | 1009.8 |
| 20260507211731 | 51 | 180 | 0.0 | 7.0 | 0.01 | 0.01 | 0.01 | 70 | 1009.8 |
| 20260507211230 | 53 | 237 | 3.5 | 7.0 | 0.01 | 0.01 | 0.01 | 66 | 1009.8 |
| 20260507210729 | 53 | 251 | 1.7 | 5.2 | 0.00 | 0.00 | 0.00 | 62 | 1009.8 |
| 20260507210229 | 53 | 321 | 0.9 | 5.2 | 0.00 | 0.00 | 0.00 | 60 | 1009.8 |
| 20260507205948 | 53 | 297 | 1.7 | 5.2 | 0.00 | 0.00 | 0.00 | 60 | 1009.4 |
| 20260507205227 | 53 | 317 | 1.7 | 8.7 | 0.00 | 0.00 | 0.00 | 60 | 1009.4 |
| 20260507204951 | 53 | 273 | 2.6 | 8.7 | 0.00 | 0.00 | 0.00 | 60 | 1009.1 |
| 20260507204225 | 53 | 17 | 2.6 | 7.0 | 0.00 | 0.00 | 0.00 | 59 | 1009.4 |
| 20260507203725 | 54 | 0 | 2.6 | 7.8 | 0.00 | 0.00 | 0.00 | 56 | 1009.1 |
| 20260507203445 | 55 | 260 | 1.7 | 8.7 | 0.00 | 0.00 | 0.00 | 58 | 1009.4 |
| 20260507202726 | 56 | 204 | 0.0 | 13.9 | 0.00 | 0.00 | 0.00 | 58 | 1009.4 |
| 20260507202440 | 58 | 245 | 5.2 | 13.9 | 0.00 | 0.00 | 0.00 | 50 | 1009.4 |
| 20260507201723 | 58 | 268 | 4.3 | 11.3 | 0.00 | 0.00 | 0.00 | 51 | 1009.1 |
| 20260507201222 | 59 | 214 | 2.6 | 13.9 | 0.00 | 0.00 | 0.00 | 48 | 1009.1 |
| 20260507200723 | 60 | 229 | 4.3 | 14.8 | 0.00 | 0.00 | 0.00 | 46 | 1009.1 |
| 20260507200221 | 60 | 240 | 6.1 | 14.8 | 0.00 | 0.00 | 0.00 | 46 | 1009.1 |
| 20260507195941 | 60 | 199 | 3.5 | 9.6 | 0.00 | 0.00 | 0.00 | 49 | 1009.1 |
| 20260507195219 | 59 | 193 | 4.3 | 9.6 | 0.00 | 0.00 | 0.00 | 47 | 1009.1 |
| 20260507194721 | 59 | 214 | 2.6 | 7.8 | 0.00 | 0.00 | 0.00 | 49 | 1009.4 |
| 20260507194219 | 60 | 251 | 4.3 | 11.3 | 0.00 | 0.00 | 0.00 | 47 | 1009.4 |
| 20260507193719 | 59 | 250 | 7.8 | 11.3 | 0.00 | 0.00 | 0.00 | 48 | 1009.8 |
| 20260507193217 | 59 | 249 | 2.6 | 8.7 | 0.00 | 0.00 | 0.00 | 48 | 1009.8 |
| 20260507192719 | 58 | 273 | 4.3 | 12.2 | 0.00 | 0.00 | 0.00 | 50 | 1009.8 |
| 20260507192216 | 60 | 246 | 2.6 | 12.2 | 0.00 | 0.00 | 0.00 | 48 | 1009.8 |
| 20260507191718 | 59 | 219 | 4.3 | 9.6 | 0.00 | 0.00 | 0.00 | 48 | 1009.8 |
| 20260507191216 | 59 | 249 | 2.6 | 11.3 | 0.00 | 0.00 | 0.00 | 49 | 1010.2 |
| 20260507190716 | 59 | 250 | 7.0 | 11.3 | 0.00 | 0.00 | 0.00 | 52 | 1010.2 |
| 20260507190214 | 57 | 253 | 5.2 | 11.3 | 0.00 | 0.00 | 0.00 | 51 | 1010.5 |
| 20260507185930 | 58 | 218 | 7.0 | 11.3 | 0.00 | 0.00 | 0.00 | 49 | 1010.2 |
| 20260507185810 | 57 | 215 | 2.6 | 11.3 | 0.00 | 0.00 | 0.00 | 51 | 1010.5 |
| 20260507184715 | 58 | 212 | 3.5 | 10.4 | 0.00 | 0.00 | 0.00 | 50 | 1010.9 |
| 20260507184433 | 58 | 199 | 1.7 | 10.4 | 0.00 | 0.00 | 0.00 | 48 | 1010.5 |
| 20260507183712 | 57 | 286 | 5.2 | 8.7 | 0.00 | 0.00 | 0.00 | 51 | 1010.5 |
| 20260507183212 | 57 | 203 | 5.2 | 8.7 | 0.00 | 0.00 | 0.00 | 48 | 1010.9 |
| 20260507182712 | 57 | 205 | 3.5 | 16.5 | 0.00 | 0.00 | 0.00 | 48 | 1010.5 |
| 20260507182210 | 57 | 213 | 5.2 | 16.5 | 0.00 | 0.00 | 0.00 | 49 | 1010.9 |
| 20260507181712 | 57 | 206 | 3.5 | 10.4 | 0.00 | 0.00 | 0.00 | 47 | 1010.9 |
| 20260507181211 | 57 | 203 | 2.6 | 12.2 | 0.00 | 0.00 | 0.00 | 46 | 1010.9 |
| 20260507180942 | 57 | 203 | 4.3 | 13.9 | 0.00 | 0.00 | 0.00 | 45 | 1010.9 |
| 20260507180209 | 58 | 202 | 5.2 | 13.9 | 0.00 | 0.00 | 0.00 | 44 | 1010.9 |
| 20260507175709 | 58 | 265 | 3.5 | 9.6 | 0.00 | 0.00 | 0.00 | 45 | 1010.9 |
| 20260507175210 | 58 | 211 | 4.3 | 9.6 | 0.00 | 0.00 | 0.00 | 45 | 1011.2 |
| 20260507174707 | 57 | 195 | 4.3 | 9.6 | 0.00 | 0.00 | 0.00 | 43 | 1010.9 |
| 20260507174207 | 57 | 269 | 1.7 | 9.6 | 0.00 | 0.00 | 0.00 | 45 | 1010.9 |
| 20260507173707 | 57 | 220 | 2.6 | 13.0 | 0.00 | 0.00 | 0.00 | 42 | 1011.2 |
| 20260507173206 | 57 | 315 | 1.7 | 13.0 | 0.00 | 0.00 | 0.00 | 41 | 1011.5 |
| 20260507172706 | 57 | 212 | 2.6 | 11.3 | 0.00 | 0.00 | 0.00 | 46 | 1011.5 |
| 20260507172205 | 57 | 226 | 3.5 | 11.3 | 0.00 | 0.00 | 0.00 | 43 | 1011.9 |
| 20260507171937 | 58 | 216 | 7.8 | 9.6 | 0.00 | 0.00 | 0.00 | 46 | 1011.5 |
| 20260507171204 | 58 | 232 | 2.6 | 10.4 | 0.00 | 0.00 | 0.00 | 43 | 1011.9 |
| 20260507170703 | 57 | 242 | 5.2 | 13.0 | 0.00 | 0.00 | 0.00 | 46 | 1011.9 |
| 20260507170427 | 56 | 228 | 0.9 | 13.0 | 0.00 | 0.00 | 0.00 | 44 | 1011.9 |
| 20260507165925 | 56 | 215 | 2.6 | 7.8 | 0.00 | 0.00 | 0.00 | 42 | 1012.2 |
| 20260507165202 | 56 | 246 | 6.1 | 7.8 | 0.00 | 0.00 | 0.00 | 46 | 1012.2 |
| 20260507164701 | 56 | 197 | 2.6 | 7.8 | 0.00 | 0.00 | 0.00 | 43 | 1012.2 |
| 20260507164159 | 56 | 231 | 3.5 | 7.8 | 0.00 | 0.00 | 0.00 | 50 | 1012.2 |
| 20260507163702 | 55 | 124 | 3.5 | 7.8 | 0.00 | 0.00 | 0.00 | 50 | 1012.5 |
| 20260507163159 | 55 | 177 | 2.6 | 9.6 | 0.00 | 0.00 | 0.00 | 46 | 1012.5 |
| 20260507162659 | 55 | 177 | 1.7 | 9.6 | 0.00 | 0.00 | 0.00 | 47 | 1012.5 |
| 20260507162157 | 55 | 174 | 2.6 | 8.7 | 0.00 | 0.00 | 0.00 | 48 | 1012.5 |
| 20260507161659 | 55 | 274 | 1.7 | 6.1 | 0.00 | 0.00 | 0.00 | 44 | 1012.2 |
| 20260507161156 | 55 | 227 | 3.5 | 7.0 | 0.00 | 0.00 | 0.00 | 43 | 1012.5 |
| 20260507160917 | 54 | 197 | 3.5 | 9.6 | 0.00 | 0.00 | 0.00 | 44 | 1012.5 |
| 20260507160156 | 54 | 162 | 3.5 | 9.6 | 0.00 | 0.00 | 0.00 | 43 | 1012.5 |
| 20260507155658 | 54 | 204 | 2.6 | 6.1 | 0.00 | 0.00 | 0.00 | 46 | 1012.5 |
| 20260507155154 | 54 | 216 | 2.6 | 7.8 | 0.00 | 0.00 | 0.00 | 43 | 1012.9 |
| 20260507154657 | 53 | 187 | 3.5 | 8.7 | 0.00 | 0.00 | 0.00 | 45 | 1013.3 |
| 20260507154153 | 53 | 231 | 4.3 | 8.7 | 0.00 | 0.00 | 0.00 | 45 | 1012.9 |
| 20260507153653 | 53 | 223 | 3.5 | 8.7 | 0.00 | 0.00 | 0.00 | 46 | 1013.3 |
| 20260507153153 | 53 | 207 | 5.2 | 8.7 | 0.00 | 0.00 | 0.00 | 46 | 1013.3 |
| 20260507152653 | 51 | 181 | 4.3 | 8.7 | 0.00 | 0.00 | 0.00 | 43 | 1013.3 |
| 20260507152151 | 52 | 267 | 1.7 | 8.7 | 0.00 | 0.00 | 0.00 | 44 | 1013.3 |
| 20260507151651 | 52 | 186 | 1.7 | 7.0 | 0.00 | 0.00 | 0.00 | 52 | 1013.7 |
| 20260507151150 | 52 | 203 | 0.9 | 6.1 | 0.00 | 0.00 | 0.00 | 47 | 1013.7 |
| 20260507150651 | 51 | 145 | 4.3 | 6.1 | 0.00 | 0.00 | 0.00 | 47 | 1013.7 |
| 20260507150150 | 51 | 158 | 2.6 | 4.3 | 0.00 | 0.00 | 0.00 | 50 | 1013.7 |
| 20260507145652 | 50 | 227 | 2.6 | 4.3 | 0.00 | 0.00 | 0.00 | 48 | 1013.7 |
| 20260507145149 | 50 | 178 | 2.6 | 5.2 | 0.00 | 0.00 | 0.00 | 47 | 1014.0 |
| 20260507144648 | 50 | 163 | 0.0 | 5.2 | 0.00 | 0.00 | 0.00 | 47 | 1014.0 |
| 20260507144148 | 49 | 157 | 2.6 | 7.8 | 0.00 | 0.00 | 0.00 | 51 | 1014.3 |
| 20260507143648 | 49 | 250 | 1.7 | 7.8 | 0.00 | 0.00 | 0.00 | 48 | 1014.3 |
| 20260507143146 | 49 | 230 | 2.6 | 5.2 | 0.00 | 0.00 | 0.00 | 48 | 1014.3 |
| 20260507143126 | 49 | 194 | 0.9 | 4.3 | 0.00 | 0.00 | 0.00 | 51 | 1014.3 |
| 20260507142147 | 48 | 181 | 2.6 | 4.3 | 0.00 | 0.00 | 0.00 | 53 | 1014.7 |
| 20260507141917 | 48 | 201 | 1.7 | 5.2 | 0.00 | 0.00 | 0.00 | 53 | 1014.3 |
| 20260507141631 | 48 | 218 | 1.7 | 5.2 | 0.00 | 0.00 | 0.00 | 53 | 1014.3 |
| 20260507140648 | 47 | 224 | 2.6 | 4.3 | 0.00 | 0.00 | 0.00 | 53 | 1014.7 |
| 20260507140143 | 47 | 197 | 0.9 | 5.2 | 0.00 | 0.00 | 0.00 | 53 | 1014.3 |
| 20260507135645 | 47 | 200 | 1.7 | 5.2 | 0.00 | 0.00 | 0.00 | 55 | 1014.3 |
| 20260507135142 | 47 | 158 | 1.7 | 5.2 | 0.00 | 0.00 | 0.00 | 57 | 1014.3 |
| 20260507135129 | 46 | 180 | 2.6 | 5.2 | 0.00 | 0.00 | 0.00 | 56 | 1014.3 |
| 20260507134141 | 46 | 188 | 1.7 | 5.2 | 0.00 | 0.00 | 0.00 | 56 | 1014.7 |
| 20260507133641 | 45 | 266 | 2.6 | 3.5 | 0.00 | 0.00 | 0.00 | 58 | 1014.7 |
| 20260507133148 | 44 | 180 | 0.0 | 6.1 | 0.00 | 0.00 | 0.00 | 59 | 1014.3 |
| 20260507133140 | 44 | 206 | 1.7 | 6.1 | 0.00 | 0.00 | 0.00 | 59 | 1014.7 |
| 20260507132141 | 44 | 229 | 0.9 | 3.5 | 0.00 | 0.00 | 0.00 | 60 | 1014.7 |
| 20260507131643 | 44 | 207 | 0.9 | 3.5 | 0.00 | 0.00 | 0.00 | 61 | 1014.7 |
| 20260507131138 | 42 | 222 | 0.9 | 2.6 | 0.00 | 0.00 | 0.00 | 65 | 1014.7 |
| 20260507130637 | 42 | 135 | 0.0 | 1.7 | 0.00 | 0.00 | 0.00 | 65 | 1015.0 |
| 20260507130151 | 42 | 93 | 0.9 | 1.7 | 0.00 | 0.00 | 0.00 | 64 | 1014.7 |
| 20260507125901 | 42 | 157 | 0.0 | 2.6 | 0.00 | 0.00 | 0.00 | 64 | 1015.0 |
| 20260507125137 | 41 | 185 | 0.0 | 2.6 | 0.00 | 0.00 | 0.00 | 66 | 1015.0 |
| 20260507124636 | 40 | 113 | 0.9 | 1.7 | 0.00 | 0.00 | 0.00 | 66 | 1015.0 |
| 20260507124137 | 40 | 119 | 0.0 | 1.7 | 0.00 | 0.00 | 0.00 | 66 | 1014.7 |
| 20260507123636 | 40 | 176 | 0.0 | 1.7 | 0.00 | 0.00 | 0.00 | 65 | 1015.0 |
| 20260507123143 | 37 | 224 | 0.0 | 1.7 | 0.00 | 0.00 | 0.00 | 73 | 1014.7 |
| 20260507123134 | 39 | 212 | 0.0 | 1.7 | 0.00 | 0.00 | 0.00 | 68 | 1014.7 |
| 20260507122140 | 37 | 180 | 0.0 | 1.7 | 0.00 | 0.00 | 0.00 | 75 | 1014.3 |
| 20260507121635 | 37 | 197 | 0.0 | 0.9 | 0.00 | 0.00 | 0.00 | 78 | 1014.3 |
| 20260507121351 | 36 | 102 | 0.0 | 0.9 | 0.00 | 0.00 | 0.00 | 81 | 1014.7 |
| 20260507120632 | 36 | 81 | 0.0 | 0.0 | 0.00 | 0.00 | 0.00 | 83 | 1014.3 |
| 20260507120350 | 35 | 124 | 0.0 | 0.9 | 0.00 | 0.00 | 0.00 | 83 | 1014.3 |
| 20260507115852 | 35 | 154 | 0.0 | 0.9 | 0.00 | 0.00 | 0.00 | 84 | 1014.3 |
| 20260507115130 | 35 | 124 | 0.0 | 0.9 | 0.00 | 0.00 | 0.00 | 85 | 1014.3 |
| 20260507114631 | 34 | 48 | 0.0 | 0.9 | 0.00 | 0.00 | 0.00 | 86 | 1014.3 |
| 20260507114128 | 34 | 60 | 0.0 | 0.9 | 0.00 | 0.00 | 0.00 | 87 | 1014.3 |
| 20260507113628 | 33 | 106 | 0.9 | 1.7 | 0.00 | 0.00 | 0.00 | 87 | 1014.3 |
| 20260507113143 | 33 | 56 | 0.9 | 1.7 | 0.00 | 0.00 | 0.00 | 87 | 1014.3 |
| 20260507112629 | 32 | 68 | 0.9 | 0.9 | 0.00 | 0.00 | 0.00 | 86 | 1014.3 |
| 20260507112127 | 32 | 212 | 0.0 | 0.0 | 0.00 | 0.00 | 0.00 | 86 | 1014.3 |
| 20260507111849 | 32 | 110 | 0.0 | 0.0 | 0.00 | 0.00 | 0.00 | 86 | 1014.0 |
| 20260507111346 | 32 | 119 | 0.0 | 0.9 | 0.00 | 0.00 | 0.00 | 85 | 1014.3 |
| 20260507110850 | 32 | 148 | 0.9 | 0.9 | 0.00 | 0.00 | 0.00 | 85 | 1014.0 |
| 20260507110602 | 32 | 32 | 0.0 | 0.9 | 0.00 | 0.00 | 0.00 | 84 | 1014.3 |
| 20260507105846 | 32 | 11 | 0.0 | 0.9 | 0.00 | 0.00 | 0.00 | 85 | 1014.3 |
| 20260507105123 | 32 | 34 | 0.0 | 0.9 | 0.00 | 0.00 | 0.00 | 85 | 1014.0 |
| 20260507104624 | 32 | 52 | 0.0 | 0.9 | 0.00 | 0.00 | 0.00 | 84 | 1014.3 |
| 20260507104122 | 32 | 44 | 0.0 | 0.9 | 0.00 | 0.00 | 0.00 | 84 | 1014.3 |
| 20260507103622 | 32 | 345 | 0.0 | 0.9 | 0.00 | 0.00 | 0.00 | 84 | 1014.3 |
| 20260507103123 | 32 | 55 | 0.0 | 0.9 | 0.00 | 0.00 | 0.00 | 84 | 1014.3 |
| 20260507102622 | 32 | 55 | 0.0 | 0.9 | 0.00 | 0.00 | 0.00 | 84 | 1014.3 |
| 20260507102342 | 32 | 38 | 0.0 | 0.9 | 0.00 | 0.00 | 0.00 | 84 | 1014.3 |
| 20260507101852 | 32 | 57 | 0.0 | 0.0 | 0.00 | 0.00 | 0.00 | 84 | 1014.0 |
| 20260507101120 | 32 | 55 | 0.0 | 0.0 | 0.00 | 0.00 | 0.00 | 85 | 1014.3 |
| 20260507100620 | 32 | 69 | 0.0 | 0.0 | 0.00 | 0.00 | 0.00 | 85 | 1014.3 |
| 20260507100117 | 32 | 32 | 0.0 | 0.0 | 0.00 | 0.00 | 0.00 | 85 | 1014.3 |
| 20260507095850 | 32 | 103 | 0.0 | 0.9 | 0.00 | 0.00 | 0.00 | 85 | 1014.3 |
| 20260507095118 | 32 | 53 | 0.0 | 0.9 | 0.00 | 0.00 | 0.00 | 85 | 1014.3 |
| 20260507094616 | 32 | 66 | 0.0 | 1.7 | 0.00 | 0.00 | 0.00 | 85 | 1014.3 |
| 20260507094118 | 32 | 32 | 0.0 | 1.7 | 0.00 | 0.00 | 0.00 | 84 | 1014.3 |
| 20260507093624 | 32 | 25 | 0.0 | 1.7 | 0.00 | 0.00 | 0.00 | 84 | 1014.3 |
| 20260507093114 | 32 | 34 | 0.0 | 0.0 | 0.00 | 0.00 | 0.00 | 84 | 1014.3 |
| 20260507092615 | 32 | 130 | 0.0 | 0.0 | 0.00 | 0.00 | 0.00 | 84 | 1014.3 |
| 20260507092113 | 32 | 69 | 0.0 | 0.9 | 0.00 | 0.00 | 0.00 | 84 | 1014.3 |
| 20260507091615 | 32 | 72 | 0.0 | 0.9 | 0.00 | 0.00 | 0.00 | 83 | 1014.3 |
| 20260507091125 | 32 | 63 | 0.0 | 0.9 | 0.00 | 0.00 | 0.00 | 83 | 1014.3 |
| 20260507090613 | 32 | 44 | 0.0 | 0.9 | 0.00 | 0.00 | 0.00 | 82 | 1014.3 |
| 20260507090338 | 32 | 19 | 0.0 | 0.0 | 0.00 | 0.00 | 0.00 | 82 | 1014.3 |
| 20260507085611 | 33 | 126 | 0.0 | 0.9 | 0.00 | 0.00 | 0.00 | 82 | 1014.3 |
| 20260507085110 | 33 | 103 | 0.0 | 0.9 | 0.00 | 0.00 | 0.00 | 82 | 1014.3 |
| 20260507084611 | 33 | 113 | 0.0 | 0.9 | 0.00 | 0.00 | 0.00 | 83 | 1014.3 |
| 20260507084344 | 33 | 94 | 0.0 | 0.9 | 0.00 | 0.00 | 0.00 | 82 | 1014.3 |
| 20260507083830 | 33 | 32 | 0.0 | 0.9 | 0.00 | 0.00 | 0.00 | 81 | 1014.3 |
| 20260507083108 | 33 | 22 | 0.0 | 0.9 | 0.00 | 0.00 | 0.00 | 81 | 1014.3 |
| 20260507082613 | 33 | 69 | 0.0 | 0.9 | 0.00 | 0.00 | 0.00 | 81 | 1014.3 |
| 20260507082340 | 33 | 38 | 0.0 | 0.9 | 0.00 | 0.00 | 0.00 | 80 | 1014.3 |
| 20260507081831 | 33 | 89 | 0.0 | 0.9 | 0.00 | 0.00 | 0.00 | 80 | 1014.3 |
| 20260507081107 | 33 | 145 | 0.0 | 0.9 | 0.00 | 0.00 | 0.00 | 79 | 1014.3 |
| 20260507080622 | 34 | 53 | 0.0 | 0.9 | 0.00 | 0.00 | 0.00 | 79 | 1014.3 |
| 20260507080331 | 34 | 54 | 0.0 | 0.9 | 0.00 | 0.00 | 0.00 | 79 | 1014.3 |
| 20260507075607 | 34 | 124 | 0.0 | 0.9 | 0.00 | 0.00 | 0.00 | 78 | 1014.3 |
| 20260507075104 | 34 | 48 | 0.0 | 0.9 | 0.00 | 0.00 | 0.00 | 78 | 1014.3 |
| 20260507074604 | 34 | 77 | 0.0 | 0.9 | 0.00 | 0.00 | 0.00 | 78 | 1014.7 |
| 20260507074104 | 34 | 113 | 0.0 | 0.0 | 0.00 | 0.00 | 0.00 | 77 | 1014.3 |
| 20260507073607 | 34 | 73 | 0.0 | 0.0 | 0.00 | 0.00 | 0.00 | 77 | 1014.3 |
| 20260507073102 | 35 | 49 | 0.0 | 0.9 | 0.00 | 0.00 | 0.00 | 77 | 1014.7 |
| 20260507072606 | 35 | 51 | 0.0 | 0.9 | 0.00 | 0.00 | 0.00 | 77 | 1014.3 |
| 20260507072544 | 35 | 55 | 0.0 | 0.9 | 0.00 | 0.00 | 0.00 | 77 | 1014.7 |
| 20260507072055 | 35 | 66 | 0.0 | 0.9 | 0.00 | 0.00 | 0.00 | 76 | 1014.7 |
| 20260507071101 | 35 | 107 | 0.0 | 1.7 | 0.00 | 0.00 | 0.00 | 76 | 1014.7 |
| 20260507070603 | 35 | 39 | 0.9 | 1.7 | 0.00 | 0.00 | 0.00 | 76 | 1014.7 |
| 20260507070325 | 35 | 49 | 0.0 | 0.9 | 0.00 | 0.00 | 0.00 | 75 | 1014.7 |
| 20260507065559 | 35 | 66 | 0.0 | 0.9 | 0.00 | 0.00 | 0.00 | 76 | 1014.7 |
| 20260507065058 | 35 | 77 | 0.0 | 0.9 | 0.00 | 0.00 | 0.00 | 77 | 1015.0 |
| 20260507064833 | 35 | 66 | 0.0 | 0.9 | 0.00 | 0.00 | 0.00 | 77 | 1015.0 |
| 20260507064108 | 35 | 44 | 0.0 | 0.9 | 0.00 | 0.00 | 0.00 | 76 | 1015.0 |
| 20260507064057 | 35 | 49 | 0.0 | 0.9 | 0.00 | 0.00 | 0.00 | 76 | 1015.0 |
| 20260507063055 | 35 | 63 | 0.0 | 1.7 | 0.00 | 0.00 | 0.00 | 77 | 1014.7 |
| 20260507062556 | 36 | 124 | 0.0 | 1.7 | 0.00 | 0.00 | 0.00 | 78 | 1014.7 |
| 20260507062317 | 36 | 51 | 0.0 | 1.7 | 0.00 | 0.00 | 0.00 | 77 | 1015.0 |
| 20260507061558 | 36 | 35 | 0.9 | 1.7 | 0.00 | 0.00 | 0.00 | 76 | 1015.0 |
| 20260507061057 | 36 | 66 | 0.0 | 0.9 | 0.00 | 0.00 | 0.00 | 76 | 1015.0 |
| 20260507060556 | 36 | 43 | 0.0 | 1.7 | 0.00 | 0.00 | 0.00 | 76 | 1015.0 |
| 20260507060108 | 36 | 44 | 0.0 | 1.7 | 0.00 | 0.00 | 0.00 | 76 | 1015.0 |
| 20260507055554 | 36 | 52 | 0.9 | 0.9 | 0.00 | 0.00 | 0.00 | 76 | 1015.0 |
| 20260507055104 | 36 | 69 | 0.0 | 0.9 | 0.00 | 0.00 | 0.00 | 76 | 1015.4 |
| 20260507055035 | 36 | 102 | 0.0 | 0.9 | 0.00 | 0.00 | 0.00 | 75 | 1015.0 |
| 20260507054051 | 36 | 69 | 0.0 | 0.0 | 0.00 | 0.00 | 0.00 | 75 | 1015.0 |
| 20260507053551 | 36 | 55 | 0.0 | 0.9 | 0.00 | 0.00 | 0.00 | 76 | 1014.7 |
| 20260507053049 | 36 | 44 | 0.0 | 0.9 | 0.00 | 0.00 | 0.00 | 77 | 1015.0 |
| 20260507052549 | 36 | 104 | 0.0 | 0.9 | 0.00 | 0.00 | 0.00 | 77 | 1015.0 |
| 20260507052049 | 36 | 65 | 0.0 | 0.0 | 0.00 | 0.00 | 0.00 | 77 | 1015.0 |
| 20260507051549 | 36 | 103 | 0.0 | 1.7 | 0.00 | 0.00 | 0.00 | 77 | 1015.0 |
| 20260507051047 | 36 | 113 | 0.0 | 1.7 | 0.00 | 0.00 | 0.00 | 76 | 1015.0 |
| 20260507050549 | 36 | 60 | 0.0 | 1.7 | 0.00 | 0.00 | 0.00 | 76 | 1015.0 |
| 20260507045550 | 36 | 51 | 0.0 | 0.9 | 0.00 | 0.00 | 0.00 | 77 | 1015.0 |
| 20260507045047 | 36 | 53 | 0.0 | 0.9 | 0.00 | 0.00 | 0.00 | 79 | 1015.0 |
| 20260507044546 | 36 | 58 | 0.0 | 1.7 | 0.00 | 0.00 | 0.00 | 79 | 1014.7 |
| 20260507044044 | 36 | 63 | 0.0 | 1.7 | 0.00 | 0.00 | 0.00 | 77 | 1015.0 |
| 20260507043549 | 37 | 64 | 0.9 | 0.9 | 0.00 | 0.00 | 0.00 | 78 | 1015.0 |
| 20260507043045 | 37 | 68 | 0.0 | 0.9 | 0.00 | 0.00 | 0.00 | 79 | 1014.7 |
| 20260507042544 | 37 | 113 | 0.0 | 0.9 | 0.00 | 0.00 | 0.00 | 76 | 1015.0 |
| 20260507042042 | 37 | 101 | 0.0 | 0.9 | 0.00 | 0.00 | 0.00 | 76 | 1015.0 |
| 20260507041543 | 37 | 65 | 0.0 | 1.7 | 0.00 | 0.00 | 0.00 | 76 | 1015.0 |
| 20260507041041 | 37 | 89 | 0.0 | 1.7 | 0.00 | 0.00 | 0.00 | 75 | 1015.0 |
| 20260507040542 | 37 | 44 | 0.0 | 1.7 | 0.00 | 0.00 | 0.00 | 75 | 1015.0 |
| 20260507040054 | 38 | 69 | 0.0 | 0.9 | 0.00 | 0.00 | 0.00 | 73 | 1015.0 |
| 20260507035802 | 38 | 48 | 0.0 | 1.7 | 0.00 | 0.00 | 0.00 | 72 | 1015.0 |
| 20260507035040 | 38 | 54 | 0.9 | 1.7 | 0.00 | 0.00 | 0.00 | 72 | 1015.0 |
| 20260507034542 | 38 | 88 | 1.7 | 1.7 | 0.00 | 0.00 | 0.00 | 71 | 1014.7 |
| 20260507034039 | 38 | 45 | 0.9 | 1.7 | 0.00 | 0.00 | 0.00 | 68 | 1015.0 |
| 20260507033539 | 39 | 77 | 0.0 | 1.7 | 0.00 | 0.00 | 0.00 | 67 | 1015.0 |
| 20260507033037 | 39 | 85 | 0.9 | 1.7 | 0.00 | 0.00 | 0.00 | 67 | 1015.0 |
| 20260507032542 | 39 | 154 | 0.0 | 1.7 | 0.00 | 0.00 | 0.00 | 65 | 1015.0 |
| 20260507032037 | 40 | 89 | 1.7 | 1.7 | 0.00 | 0.00 | 0.00 | 65 | 1015.0 |
| 20260507031541 | 40 | 76 | 0.9 | 1.7 | 0.00 | 0.00 | 0.00 | 65 | 1015.0 |
| 20260507031036 | 40 | 33 | 0.9 | 1.7 | 0.00 | 0.00 | 0.00 | 64 | 1015.0 |
| 20260507030535 | 41 | 67 | 0.0 | 1.7 | 0.00 | 0.00 | 0.00 | 65 | 1015.0 |
| 20260507030035 | 41 | 62 | 0.0 | 1.7 | 0.00 | 0.00 | 0.00 | 65 | 1015.0 |
| 20260507025534 | 41 | 95 | 0.9 | 1.7 | 0.00 | 0.00 | 0.00 | 63 | 1015.0 |
| 20260507025033 | 41 | 149 | 0.0 | 1.7 | 0.00 | 0.00 | 0.00 | 59 | 1015.0 |
| 20260507024534 | 42 | 57 | 0.0 | 1.7 | 0.00 | 0.00 | 0.00 | 59 | 1014.7 |
| 20260507024032 | 42 | 50 | 0.9 | 1.7 | 0.00 | 0.00 | 0.00 | 58 | 1014.7 |
| 20260507023534 | 42 | 55 | 0.9 | 1.7 | 0.00 | 0.00 | 0.00 | 59 | 1014.7 |
| 20260507023033 | 42 | 46 | 0.9 | 2.6 | 0.00 | 0.00 | 0.00 | 57 | 1015.0 |
| 20260507022533 | 42 | 45 | 0.9 | 2.6 | 0.00 | 0.00 | 0.00 | 58 | 1014.3 |
| 20260507022044 | 43 | 13 | 1.7 | 2.6 | 0.00 | 0.00 | 0.00 | 56 | 1014.7 |
| 20260507021530 | 43 | 0 | 0.9 | 1.7 | 0.00 | 0.00 | 0.00 | 57 | 1014.7 |
| 20260507021310 | 43 | 53 | 0.0 | 2.6 | 0.00 | 0.00 | 0.00 | 56 | 1014.7 |
| 20260507020529 | 43 | 54 | 0.9 | 2.6 | 0.00 | 0.00 | 0.00 | 56 | 1014.3 |
| 20260507020030 | 43 | 36 | 1.7 | 1.7 | 0.00 | 0.00 | 0.00 | 56 | 1014.3 |
| 20260507015529 | 43 | 25 | 1.7 | 1.7 | 0.00 | 0.00 | 0.00 | 57 | 1014.7 |
| 20260507015040 | 44 | 333 | 0.9 | 1.7 | 0.00 | 0.00 | 0.00 | 56 | 1014.3 |
| 20260507014529 | 44 | 62 | 0.9 | 1.7 | 0.00 | 0.00 | 0.00 | 55 | 1014.3 |
| 20260507014026 | 44 | 31 | 0.0 | 1.7 | 0.00 | 0.00 | 0.00 | 54 | 1014.3 |
| 20260507013803 | 44 | 89 | 0.0 | 1.7 | 0.00 | 0.00 | 0.00 | 55 | 1014.3 |
| 20260507013028 | 45 | 315 | 0.0 | 1.7 | 0.00 | 0.00 | 0.00 | 52 | 1014.0 |
| 20260507012525 | 45 | 19 | 0.9 | 1.7 | 0.00 | 0.00 | 0.00 | 52 | 1014.3 |
| 20260507012023 | 46 | 22 | 0.0 | 1.7 | 0.00 | 0.00 | 0.00 | 50 | 1014.3 |
| 20260507011525 | 46 | 98 | 0.9 | 3.5 | 0.00 | 0.00 | 0.00 | 49 | 1014.0 |
| 20260507011247 | 46 | 23 | 0.0 | 3.5 | 0.00 | 0.00 | 0.00 | 48 | 1014.0 |
| 20260507011136 | 46 | 342 | 0.9 | 2.6 | 0.00 | 0.00 | 0.00 | 49 | 1014.3 |
| 20260507010025 | 47 | 69 | 0.0 | 2.6 | 0.00 | 0.00 | 0.00 | 48 | 1014.0 |
| 20260507005523 | 47 | 2 | 1.7 | 4.3 | 0.00 | 0.00 | 0.00 | 47 | 1014.3 |
| 20260507005020 | 47 | 192 | 0.9 | 4.3 | 0.00 | 0.00 | 0.00 | 45 | 1014.0 |
| 20260507004522 | 47 | 137 | 1.7 | 5.2 | 0.00 | 0.00 | 0.00 | 45 | 1014.0 |
| 20260507004020 | 48 | 119 | 1.7 | 7.0 | 0.00 | 0.00 | 0.00 | 44 | 1014.0 |
| 20260507003523 | 48 | 263 | 3.5 | 7.0 | 0.00 | 0.00 | 0.00 | 44 | 1014.0 |
| 20260507003018 | 48 | 38 | 1.7 | 11.3 | 0.00 | 0.00 | 0.00 | 45 | 1014.0 |
| 20260507002520 | 48 | 187 | 2.6 | 11.3 | 0.00 | 0.00 | 0.00 | 44 | 1014.0 |
| 20260507002243 | 48 | 140 | 0.9 | 6.1 | 0.00 | 0.00 | 0.00 | 45 | 1014.0 |
| 20260507001520 | 49 | 6 | 1.7 | 8.7 | 0.00 | 0.00 | 0.00 | 45 | 1014.0 |
| 20260507001029 | 49 | 326 | 1.7 | 8.7 | 0.00 | 0.00 | 0.00 | 43 | 1014.0 |
| 20260507000517 | 49 | 321 | 1.7 | 7.8 | 0.00 | 0.00 | 0.00 | 43 | 1013.7 |
| 20260507000015 | 49 | 336 | 3.5 | 7.8 | 0.00 | 0.00 | 0.00 | 42 | 1014.0 |
| 20260506235739 | 49 | 241 | 2.6 | 7.8 | 0.00 | 0.00 | 0.00 | 45 | 1013.7 |
| 20260506235014 | 49 | 35 | 2.6 | 6.1 | 0.00 | 0.00 | 0.00 | 45 | 1013.7 |
| 20260506234514 | 49 | 158 | 1.7 | 7.0 | 0.00 | 0.00 | 0.00 | 45 | 1013.7 |
| 20260506234013 | 50 | 3 | 2.6 | 7.0 | 0.00 | 0.00 | 0.00 | 44 | 1013.7 |
| 20260506233514 | 50 | 253 | 5.2 | 6.1 | 0.00 | 0.00 | 0.00 | 46 | 1013.7 |
| 20260506233233 | 51 | 231 | 3.5 | 8.7 | 0.00 | 0.00 | 0.00 | 44 | 1013.7 |
| 20260506232748 | 51 | 5 | 1.7 | 8.7 | 0.00 | 0.00 | 0.00 | 43 | 1013.3 |
| 20260506232012 | 51 | 234 | 5.2 | 7.8 | 0.00 | 0.00 | 0.00 | 44 | 1013.7 |
| 20260506231513 | 51 | 356 | 3.5 | 7.0 | 0.00 | 0.00 | 0.00 | 42 | 1013.7 |
| 20260506231011 | 51 | 330 | 2.6 | 7.0 | 0.00 | 0.00 | 0.00 | 43 | 1013.7 |
| 20260506230511 | 51 | 301 | 5.2 | 7.8 | 0.00 | 0.00 | 0.00 | 44 | 1013.7 |
| 20260506230009 | 51 | 0 | 2.6 | 9.6 | 0.00 | 0.00 | 0.00 | 43 | 1013.3 |
| 20260506225511 | 51 | 4 | 7.0 | 9.6 | 0.00 | 0.00 | 0.00 | 43 | 1013.7 |
| 20260506225010 | 51 | 130 | 1.7 | 9.6 | 0.00 | 0.00 | 0.00 | 44 | 1013.3 |